sat.trackr.live / text

‹ back to catalog

2026-027G

NORAD 67752 · 2026-027G

PAYLOAD ACTIVE UNKNOWN

§ Identity

Operator
Country
PRC
Launch date
2026-02-12
Launch site
SCSLA
Launch vehicle
Mass (kg)
RCS (m²)

External: N2YO · Heavens-Above · Gunter

§ Orbital elements

Epoch: 2026-09-20T05:50:26.519136Z

Period
95.10 min
Inclination
97.5172°
Eccentricity
0.0010708
Mean motion
15.14266961 rev/d
Perigee alt
515.8 km
Apogee alt
530.6 km
Semi-major
6,901.3 km
B*
2.2025e-4
RAAN
29.2417°
Arg perigee
282.4820°
Mean anomaly
77.5214°
Rev number
3,328

§ Raw data

2026-027G1 67752U 26027G   26263.24336249  .00003967  00000+0  22025-3 0  99942 67752  97.5172  29.2417 0010708 282.4820  77.5214 15.14266961 33280

JSON: /api/v1/satellites/67752 · /tle

For live sub-satellite position, see the globe view (requires WebGL).

§ Visibility from observer

Set your observer location to see the next 7 days of passes ≥ 10°. The values pass through the URL so the page stays shareable.

No JS? Fill the form by hand. The geolocation button needs JavaScript.